Weather History for Lancaster, OH

Change the Weather History Date:

Friday, October 11, 2013

  Actual Average Record
Temperature  
Mean Temperature 59 °F -  
Max Temperature 78 °F 66 °F 85 °F (1954)
Min Temperature 41 °F 41 °F 28 °F (1957)
Degree Days  
Heating Degree Days 6    
Growing Degree Days 9 (Base 50)    
Moisture  
Dew Point 48 °F    
Average Humidity 71    
Maximum Humidity 97    
Minimum Humidity 34    
Precipitation  
Precipitation 0.00 in - - ()
Sea Level Pressure  
Sea Level Pressure 30.08 in    
Wind  
Wind Speed 2 mph (NE)    
Max Wind Speed 9 mph    
Max Gust Speed 17 mph    
Visibility 10 miles    
Events      
Averages and records for this station are not official NWS values.
T = Trace of Precipitation, MM = Missing Value Source: NWS Daily Summary

Daily Weather History Graph

Daily Weather History Graph

Search for Another Location

Airport:

Trip Planner

Search our weather history database for the weather conditions in past years. The results will help you decide how hot, cold, wet, or windy it might be!

Date:

Astronomy

Oct. 11, 2013 Rise Set
Actual Time 7:36 AM EDT 6:56 PM EDT
Civil Twilight 7:09 AM EDT 7:23 PM EDT
Nautical Twilight 6:38 AM EDT 7:55 PM EDT
Astronomical Twilight 6:07 AM EDT 8:26 PM EDT
Moon 2:17 PM EDT (10/11) No Moon Set
Length of Visible Light 12h 14m
Length of Day
11h 19m
Waxing Crescent, 47% of the Moon is Illuminated
Oct 11
Waxing Crescent
Oct 11
First Quarter
Oct 18
Full
Oct 26
Last Quarter
Nov 3
New

Hourly Weather History & Observations

Time (EDT) Temp. Dew Point Humidity Pressure Visibility Wind Dir Wind Speed Gust Speed Precip Events Conditions
12:53 AM 48.9 °F 46.0 °F 90% 30.08 in 10.0 mi Calm Calm - N/A   Clear
1:53 AM 46.0 °F 45.0 °F 96% 30.08 in 10.0 mi Calm Calm - N/A   Clear
2:53 AM 46.0 °F 44.1 °F 93% 30.08 in 10.0 mi Calm Calm - N/A   Clear
3:53 AM 46.0 °F 43.0 °F 89% 30.07 in 9.0 mi Calm Calm - N/A   Clear
4:53 AM 43.0 °F 42.1 °F 97% 30.07 in 9.0 mi Calm Calm - N/A   Clear
5:53 AM 44.1 °F 42.1 °F 93% 30.08 in 9.0 mi Calm Calm - N/A   Clear
6:53 AM 43.0 °F 42.1 °F 97% 30.09 in 8.0 mi Calm Calm - N/A   Clear
7:53 AM 41.0 °F 39.9 °F 96% 30.11 in 8.0 mi Calm Calm - N/A   Clear
8:53 AM 52.0 °F 48.0 °F 86% 30.12 in 10.0 mi Calm Calm - N/A   Clear
9:53 AM 60.1 °F 50.0 °F 69% 30.12 in 10.0 mi Calm Calm - N/A   Clear
10:53 AM 66.0 °F 51.1 °F 59% 30.11 in 10.0 mi NE 8.1 mph - N/A   Clear
11:53 AM 70.0 °F 50.0 °F 49% 30.11 in 10.0 mi NE 8.1 mph - N/A   Clear
12:53 PM 72.0 °F 50.0 °F 46% 30.09 in 10.0 mi NE 9.2 mph - N/A   Clear
1:53 PM 73.9 °F 51.1 °F 45% 30.07 in 10.0 mi NNE 8.1 mph 17.3 mph N/A   Clear
2:53 PM 77.0 °F 51.1 °F 40% 30.04 in 10.0 mi NNE 8.1 mph - N/A   Clear
3:53 PM 77.0 °F 48.0 °F 36% 30.03 in 10.0 mi ENE 9.2 mph - N/A   Clear
4:53 PM 77.0 °F 46.9 °F 34% 30.04 in 10.0 mi North 5.8 mph - N/A   Partly Cloudy
5:53 PM 75.0 °F 46.0 °F 36% 30.04 in 10.0 mi NNE 6.9 mph - N/A   Clear
6:53 PM 69.1 °F 48.9 °F 49% 30.05 in 10.0 mi ENE 4.6 mph - N/A   Clear
7:53 PM 59.0 °F 51.1 °F 75% 30.07 in 10.0 mi Calm Calm - N/A   Clear
8:53 PM 62.1 °F 53.1 °F 72% 30.07 in 10.0 mi ENE 3.5 mph - N/A   Overcast
9:53 PM 57.9 °F 51.1 °F 78% 30.07 in 10.0 mi ENE 3.5 mph - N/A   Clear
10:53 PM 57.0 °F 52.0 °F 83% 30.07 in 10.0 mi Calm Calm - N/A   Clear
11:53 PM 54.0 °F 51.1 °F 90% 30.06 in 10.0 mi Calm Calm - N/A   Clear